Home   Weather   Alice Springs   Past weeks
Flag for Australia

Past Weather in Alice Springs, Northern Territory, Australia — Yesterday and Last 2 Weeks

Now
72 °F

Sunny.


Feels Like: 74 °F
Forecast: 79 / 45 °F
Wind: 6 mph from East

Location: Alice Springs Aerodrome

Current Time: Jul 19, 2019 at 5:46:44 pm

Latest Report: Jul 19, 2019 at 5:00 pm


Visibility: N/A

Pressure: 30.07 "Hg (28.11 "Hg at 581m altitude)

Humidity: 15%

Dew Point: 21 °F

Location of Alice SpringsLocation

Past Weather in Alice Springs — Graph

°F

Alice Springs Temperature Yesterday

Maximum temperature yesterday: 73 °F (at 3:30 pm)
Minimum temperature yesterday: 36 °F (at 7:30 am)
Average temperature yesterday: 53 °F

High & Low Weather Summary for the Past Weeks

 TemperatureHumidityPressure
High75 °F (Jul 6, 2:30 pm)93% (Jul 16, 5:00 am)30.48 "Hg (Jul 16, 5:00 am)
Low32 °F (Jul 15, 6:00 am)12% (Jul 9, 4:00 pm)30.07 "Hg (Jul 19, 3:00 pm)
Average54 °F46%30.26 "Hg
* Reported Jul 4 4:30 pm — Jul 19 4:30 pm, Alice Springs. Weather by CustomWeather, © 2019

Note: Actual official high and low records may vary slightly from our data, if they occured in-between our weather recording intervals... More about our weather records

Advertising

Alice Springs Weather History for the Previous 24 Hours

Scroll right to see more
 ConditionsComfort  
Time TempWeatherWind HumidityBarometerVisibility
4:30 pm
Fri, Jul 19
72 °FSunny.3 mph16%30.07 "HgN/A
4:00 pm73 °FSunny.5 mph15%30.07 "HgN/A
3:30 pm73 °FSunny.6 mph16%30.07 "HgN/A
3:00 pm72 °FSunny.6 mph17%30.07 "HgN/A
2:30 pm72 °FSunny.6 mph16%30.09 "HgN/A
2:00 pm72 °FSunny.7 mph19%30.09 "HgN/A
1:30 pm70 °FSunny.6 mph18%30.09 "HgN/A
1:00 pm70 °FSunny.6 mph18%30.12 "HgN/A
12:30 pm68 °FSunny.7 mph20%30.15 "HgN/A
12:00 pm68 °FSunny.12 mph23%30.15 "HgN/A
11:30 am66 °FSunny.9 mph24%30.18 "HgN/A
11:00 am66 °FSunny.9 mph26%30.18 "Hg10 mi
10:30 am64 °FSunny.10 mph28%30.21 "Hg10 mi
9:30 am61 °FSunny.9 mph31%30.21 "HgN/A
9:00 am57 °FSunny.8 mph36%30.18 "Hg10 mi
8:30 am52 °FSunny.5 mph44%30.18 "HgN/A
8:00 am43 °FSunny.5 mph57%30.18 "HgN/A
7:30 am37 °FClear.6 mph65%30.18 "HgN/A
7:00 am36 °FClear.5 mph65%30.18 "HgN/A
6:30 am36 °FClear.6 mph65%30.15 "HgN/A
6:00 am37 °FClear.6 mph65%30.15 "HgN/A
5:30 am37 °FClear.No wind60%30.12 "HgN/A
5:00 am37 °FClear.3 mph60%30.12 "HgN/A
4:30 am39 °FClear.3 mph56%30.15 "HgN/A
4:00 am39 °FClear.5 mph56%30.15 "HgN/A
3:30 am41 °FClear.5 mph57%30.15 "HgN/A
3:00 am39 °FClear.2 mph56%30.15 "HgN/A
2:30 am39 °FClear.3 mph61%30.15 "HgN/A
2:00 am41 °FClear.2 mph57%30.15 "HgN/A
1:30 am45 °FClear.3 mph57%30.18 "HgN/A
1:00 am45 °FClear.5 mph53%30.18 "HgN/A
12:30 am43 °FClear.5 mph53%30.18 "HgN/A
12:00 am45 °FClear.3 mph53%30.18 "HgN/A
11:30 pm
Thu, Jul 18
46 °FClear.No wind50%30.18 "HgN/A
11:00 pm46 °FClear.No wind46%30.18 "HgN/A
10:30 pm48 °FClear.5 mph46%30.18 "HgN/A
10:00 pm48 °FClear.5 mph43%30.15 "HgN/A
9:30 pm50 °FClear.No wind43%30.15 "HgN/A
9:00 pm52 °FClear.6 mph44%30.15 "HgN/A
8:30 pm55 °FClear.3 mph38%30.15 "HgN/A
8:00 pm55 °FClear.6 mph36%30.15 "HgN/A
7:30 pm59 °FClear.7 mph34%30.12 "HgN/A
7:00 pm59 °FClear.6 mph34%30.12 "HgN/A
6:30 pm64 °FSunny.8 mph28%30.12 "HgN/A
6:00 pm68 °FSunny.9 mph26%30.12 "HgN/A
5:30 pm70 °FSunny.10 mph25%30.12 "HgN/A
5:00 pm72 °FSunny.9 mph23%30.12 "HgN/A
Weather by CustomWeather, © 2019

See weather overview